Hourly Data Report for October 02, 2017

All times are specified in Local Standard Time (LST). Add 1 hour to adjust for Daylight Saving Time where and when it is observed.

ISLAND LAKE A
MANITOBA

53°51'26.000" N
94°39'13.000" W
235.30 m
5061375
71145
YIV

Download Data

Hourly Data (October 2017)
Hourly Data Report for October 2, 2017
Temp Definition
°C
Dew Point Temp Definition
°C
Rel Hum Definition
%
Wind Dir Definition
10's deg

Wind Spd Definition
km/h
Visibility Definition
km
Stn Press Definition
kPa
Hmdx Definition


Wind Chill Definition


Weather Definition


TIME
00:00 Legend Double Dagger 13.1 12.2 95 14 20 24.1 97.75     Rain
01:00 Legend Double Dagger 12.8 12.1 96 14 20 16.1 97.73     Rain
02:00 Legend Double Dagger 12.7 12.0 96 15 21 12.9 97.70     Rain
03:00 Legend Double Dagger 12.6 12.1 97 15 17 19.3 97.69     Rain
04:00 Legend Double Dagger 12.6 12.1 97 15 16 12.9 97.68     Rain
05:00 Legend Double Dagger 12.5 12.0 97 14 14 19.3 97.63     Rain
06:00 Legend Double Dagger 12.7 12.1 96 16 15 16.1 97.69     Rain,Fog
07:00 Legend Double Dagger 12.7 12.3 97 16 14 2.4 97.74     Rain,Fog
08:00 Legend Double Dagger 13.1 12.5 97 16 8 24.1 97.75     Rain
09:00 Legend Double Dagger 13.3 12.6 96 15 7 19.3 97.76     Cloudy
10:00 Legend Double Dagger 13.1 12.7 97 11 7 9.7 97.72     Fog
11:00 Legend Double Dagger 13.4 13.0 98 13 12 2.0 97.71     Rain,Fog
12:00 Legend Double Dagger 13.6 13.3 98 14 11 4.8 97.70     Rain,Drizzle,Fog
13:00 Legend Double Dagger 13.8 13.3 97 18 10 3.2 97.72     Rain,Fog
14:00 Legend Double Dagger 13.9 13.3 96 16 9 19.3 97.69     Drizzle,Fog
15:00 Legend Double Dagger 14.2 13.3 94 15 9 19.3 97.68     Drizzle,Fog
16:00 Legend Double Dagger 14.1 12.9 93 17 9 19.3 97.69     Drizzle,Fog
17:00 Legend Double Dagger 13.4 13.0 97 16 10 1.6 97.75     Drizzle,Fog
18:00 Legend Double Dagger 13.4 13.0 98 15 9 6.4 97.80     Drizzle,Fog
19:00 Legend Double Dagger 13.7 13.0 95 19 13 19.3 97.86     LegendNANA
20:00 Legend Double Dagger 13.2 11.6 90 20 18 19.3 97.93     LegendNANA
21:00 Legend Double Dagger 12.7 10.3 85 22 18 24.1 98.04     Cloudy
22:00 Legend Double Dagger 12.2 9.8 85 22 18 24.1 98.11     LegendNANA
23:00 Legend Double Dagger 11.7 9.3 85 23 15 24.1 98.16     LegendNANA

Notes on Data Quality.

Legend

  • E = Estimated
  • M = Missing
  • NA = Not Available
  • ‡ = Partner data that is not subject to review by the National Climate Archives
Date modified: